Location: Stillwell
(40.4602°N, 82.0928°W)
Time: 05:28:00
(UTC-04:00)

Daily predictions for brighter satellites

Satellite Brightness Start Highest point End
(mag) Time Altitude Azimuth Time Altitude Azimuth Time Altitude Azimuth
H-2A R/B 4.2 00:10:18 25° NNW 00:10:18 25° NNW 00:12:11 10° NNW
ATLAS 3B R/B 3.7 00:06:00 10° NW 00:11:07 34° W 00:11:07 34° W
Cosmos 2219 Rocket 3.1 00:14:24 46° N 00:14:24 46° N 00:18:30 10° NNE
COSMOS 2428 4.0 00:17:01 35° WNW 00:17:35 36° WNW 00:22:50 10° N
SL-16 R/B 4.4 00:21:38 16° NE 00:21:38 16° NE 00:22:49 10° NE
CZ-2C R/B 4.3 00:16:53 10° NNE 00:19:21 27° NE 00:19:21 27° NE
Terra 3.9 00:24:36 21° WNW 00:24:36 21° WNW 00:26:53 10° NW
NOSS 3-2 (C) 4.0 00:19:21 10° NW 00:26:27 78° WNW 00:26:27 78° WNW
Cosmos 2333 Rocket 3.3 00:32:48 40° NNW 00:32:48 40° NNW 00:36:42 10° NNE
NOSS 3-4 (A) 4.3 00:54:00 47° NNW 00:54:00 47° NNW 00:59:43 10° NNE
NOSS 3-4 (C) 4.3 00:54:09 47° NNW 00:54:09 47° NNW 00:59:49 10° NNE
Cosmos 2237 Rocket 3.6 00:57:08 35° N 00:57:08 35° N 01:00:40 10° NNE
Mayak 1.8 00:52:13 10° NNE 00:52:17 10° NNE 00:52:17 10° NNE
CENTAUR R/B 3.2 00:57:07 10° NNW 01:04:37 72° NNE 01:04:37 72° NNE
USA 215 3.8 01:13:10 51° NNE 01:13:10 51° NNE 01:19:24 10° NW
Cosmos 2278 Rocket 4.4 01:29:55 10° NW 01:31:25 16° WNW 01:31:25 16° WNW
ATLAS CENTAUR R/B 4.0 01:27:54 10° NW 01:35:02 40° NNW 01:35:02 40° NNW
COSMOS 2455 4.3 01:39:12 10° NNW 01:42:18 32° NW 01:42:18 32° NW
SL-16 R/B 3.8 02:03:29 30° NNW 02:03:29 30° NNW 02:07:03 10° N
Cosmos 1943 Rocket 3.4 02:27:00 10° N 02:31:11 37° NE 02:31:11 37° NE
SL-16 R/B 4.3 02:30:31 20° E 02:32:49 25° ENE 02:37:43 10° N
Resurs 1-4 Rocket 4.3 02:35:31 10° NE 02:38:22 17° E 02:38:22 17° E
Cosmos 2369 Rocket 3.4 02:38:26 10° NNW 02:41:42 36° NNW 02:41:42 36° NNW
CZ-3A R/B 4.0 02:35:21 10° NW 02:46:49 58° NNE 02:52:08 10° ESE
CZ-2D R/B 4.0 02:45:18 10° NE 02:48:55 22° E 02:48:55 22° E
Cosmos 1943 4.0 02:56:08 47° N 02:56:08 47° N 03:00:12 10° NNE
ARIANE 5 R/B 4.0 03:07:49 10° NE 03:12:11 29° E 03:12:11 29° E
BREEZE-M DEB (TANK) 3.8 03:13:14 63° NW 03:13:31 64° NNW 03:28:33 10° ENE
ADEOS Rocket 3.1 03:17:12 10° NNE 03:21:45 62° N 03:21:45 62° N
Cosmos 1535 Rocket 4.5 03:28:55 77° ESE 03:29:05 78° E 03:35:31 10° N
IRS-1D 4.0 03:31:45 10° NNE 03:36:35 56° E 03:36:35 56° E
Cosmos 2221 3.6 03:41:00 42° NE 03:41:00 42° NE 03:44:16 10° NNE
ADEOS 4.1 03:39:54 10° NNE 03:44:59 50° E 03:45:16 50° ESE
Spot 4 Rocket 4.2 03:40:12 10° NNE 03:45:08 69° E 03:45:08 69° E
COSMOS 2406 3.6 03:47:05 51° SE 03:47:30 52° ESE 03:53:01 10° NNE
NPP 4.1 03:42:53 10° N 03:47:30 51° NW 03:47:30 51° NW
Cosmos 372 Rocket 4.2 03:45:21 10° NNW 03:50:30 66° ENE 03:50:59 62° ESE
Cosmos 2098 Rocket 3.6 03:52:13 81° W 03:52:16 82° W 03:57:30 10° N
IRS-1C 4.2 03:48:53 10° N 03:53:50 65° NW 03:53:50 65° NW
Cosmos 540 Rocket 3.5 03:58:15 70° NNW 03:58:15 70° NNW 04:03:00 10° NNE
Meteor 2-1 Rocket 4.1 03:58:39 71° WNW 03:58:39 71° WNW 04:04:05 10° N
Cosmos 1908 4.4 04:03:42 39° N 04:03:42 39° N 04:06:12 10° N
MOS 1 Rocket 3.2 04:03:25 10° NNE 04:07:19 72° N 04:07:19 72° N
Cosmos 1300 4.1 04:12:33 32° ESE 04:13:00 33° E 04:16:28 10° NNE
Cosmos 1125 Rocket 3.6 04:09:37 10° NNW 04:14:14 59° WNW 04:14:14 59° WNW
Cosmos 1943 Rocket 4.0 04:11:08 10° NW 04:12:38 17° WNW 04:12:38 17° WNW
SL-16 R/B 2.6 04:15:37 53° WSW 04:16:02 54° W 04:22:07 10° NNW
Sich 1 3.7 04:12:06 10° N 04:16:25 52° E 04:17:46 37° SE
Resurs 1-4 Rocket 2.2 04:14:00 10° N 04:19:08 56° WNW 04:19:26 55° W
Cosmos 2123 Rocket 4.0 04:13:33 10° NNW 04:19:43 62° W 04:20:53 53° SW
CZ-2D R/B 3.6 04:17:10 10° NNE 04:21:09 62° E 04:21:16 61° ESE
Cosmos 1656 Rocket 3.7 04:18:16 10° NNW 04:23:50 57° WSW 04:24:03 56° WSW
Cosmos 1315 Rocket 3.2 04:23:37 10° N 04:27:39 63° E 04:28:33 47° SE
CZ-2D R/B 2.5 04:24:33 10° N 04:29:40 46° WNW 04:30:15 44° W
Cosmos 2228 Rocket 4.3 04:31:12 21° SSE 04:33:46 40° E 04:37:56 10° NNE
Cosmos 1934 Rocket 4.5 04:34:39 36° W 04:35:24 38° WNW 04:41:00 10° N
USA 229 DEB 3.7 04:29:46 10° NW 04:36:55 71° WSW 04:44:11 10° SSE
USA 229 3.7 04:29:52 10° NW 04:37:02 72° WSW 04:44:18 10° SSE
Cosmos 2082 Rocket 4.2 04:35:44 10° SSE 04:39:59 23° E 04:44:16 10° NE
PSLV R/B 3.5 04:42:54 64° ENE 04:42:54 64° ENE 04:45:46 10° E
Cosmos 1633 Rocket 2.9 04:40:28 10° N 04:44:51 89° ENE 04:46:50 32° S
USA 161 3.7 04:47:07 16° NNE 04:47:07 16° NNE 04:47:45 10° NNE
Tiangong 2 3.4 04:46:42 16° SE 04:46:42 16° SE 04:48:27 10° ESE
Cosmos 292 Rocket 3.8 04:46:25 48° SW 04:47:34 66° WNW 04:52:22 10° NNE
Cosmos 1605 Rocket 4.4 04:47:29 35° WSW 04:49:27 44° WNW 04:55:34 10° N
Cosmos 2061 Rocket 4.4 04:43:47 13° S 04:49:35 66° E 04:55:58 10° NNE
Lacrosse 5 3.8 04:45:51 10° NNW 04:50:20 30° NNE 04:54:48 10° E
ARIANE 5 R/B 3.4 04:46:47 10° N 04:51:28 34° WNW 04:52:31 31° W
CZ-4B R/B 4.4 04:52:42 10° NNE 04:56:55 40° E 05:01:10 10° SSE
UNKNOWN OBJECT B 3.5 04:55:42 10° N 04:59:30 39° WNW 05:00:00 37° W
Cosmos 1400 Rocket 4.4 04:57:17 10° NW 04:59:08 20° WNW 04:59:08 20° WNW
MOZ.5/SAFIR/RUBIN 5/SL-8 4.3 05:00:54 35° WSW 05:01:19 35° W 05:05:37 10° NNW
Cosmos 1726 2.9 05:03:54 34° WNW 05:03:55 34° WNW 05:07:20 10° N
Cosmos 2369 4.5 05:01:41 10° NNW 05:07:14 54° ENE 05:12:45 10° SE
Cosmos 1328 Rocket 3.4 05:05:17 30° SSW 05:07:21 72° W 05:11:42 10° N
SL-27 R/B 3.1 05:08:12 35° WNW 05:08:25 36° WNW 05:11:36 10° N
Cosmos 2016 Rocket 4.1 05:03:32 10° S 05:09:38 75° E 05:15:44 10° N
ADEOS II 2.2 05:04:38 10° NNE 05:09:56 76° ESE 05:14:51 12° S
Cosmos 1892 3.7 05:06:59 10° N 05:10:42 47° E 05:14:25 10° SSE
NOSS 3-1 (C) 4.0 05:04:07 10° NW 05:11:49 84° WSW 05:20:17 10° SSE
Hubble Space Telescope 2.8 05:12:56 14° S 05:13:18 14° S 05:15:26 10° SE
MOS 1-B 4.3 05:07:37 10° NNE 05:13:28 87° WNW 05:18:38 13° SSW
Shenzhou-11 Module 2.9 05:14:51 32° S 05:15:31 36° SSE 05:18:24 10° E
In-Cosmos 22 Rocket 4.0 05:11:42 10° NNW 05:17:05 70° W 05:22:21 10° S
Cosmos 1666 Rocket 4.4 05:13:47 10° NNW 05:17:42 31° W 05:18:57 27° WSW
PSLV R/B 4.0 05:13:31 10° NNE 05:17:51 61° ESE 05:22:04 10° S
BREEZE-M DEB (TANK) 3.2 05:20:14 20° S 05:20:14 20° S 05:21:51 10° SSE
Meteor 2-2 Rocket 4.4 05:15:54 18° SSW 05:20:21 62° WNW 05:26:20 10° N
Cosmos 1725 Rocket 4.4 05:16:11 10° S 05:22:17 66° E 05:28:24 10° NNE
Cosmos 1802 Rocket 4.0 05:17:49 11° SSW 05:23:42 72° W 05:29:58 10° N
Cosmos 2100 Rocket 4.2 05:21:04 16° SSW 05:26:06 54° W 05:32:21 10° N
Cosmos 1933 Rocket 3.5 05:22:13 10° NNW 05:26:40 73° W 05:31:05 10° S
Cosmos 773 Rocket 4.1 05:26:23 19° SW 05:30:10 59° WNW 05:35:26 10° NNE
Abrixas 2.0 05:29:36 16° WNW 05:31:34 85° NNE 05:34:11 10° ESE
COSMOS 2487 2.9 05:28:40 11° S 05:32:02 60° ESE 05:35:32 10° NNE
Okean O Rocket 1.6 05:31:28 10° NNE 05:35:55 88° E 05:40:19 10° SSW
Cosmos 1833 Rocket 3.0 05:33:10 10° SSW 05:38:47 71° ESE 05:44:25 10° NNE
Cosmos 1151 Rocket 3.2 05:38:20 12° SSW 05:42:12 51° W 05:46:23 10° N
Tsikada Rocket 4.1 05:37:35 10° N 05:43:56 85° E 05:50:19 10° S
Cosmos 1980 Rocket 3.7 05:48:07 10° N 05:53:24 40° ENE 05:58:40 10° SE
Cosmos 2278 3.7 05:51:29 10° NNW 05:57:04 61° WSW 06:02:36 10° S
Cosmos 482 Debris 3.7 05:59:12 10° WNW 06:01:49 68° SW 06:06:09 10° SE
EO 1 Del DPAF 4.0 05:58:10 10° SSE 06:01:56 58° ENE 06:05:44 10° N
Cosmos 1455 2.6 06:01:35 10° SSW 06:05:11 43° W 06:08:47 10° N
Cosmos 1697 Rocket 2.8 06:03:41 10° NNW 06:09:24 89° WSW 06:15:03 10° SSE
CZ-4B DEB 4.4 06:04:48 10° N 06:10:11 56° WNW 06:15:33 10° SSW
Cosmos 1371 Rocket 4.4 06:11:17 10° NNW 06:16:31 72° ENE 06:21:45 10° SSE
Timation 2 Rocket 4.3 06:11:56 10° SSW 06:17:51 69° ESE 06:23:57 10° NNE
